Lamezia Terme, Italy

4:35 AM CEST on October 17, 2017 (GMT +0200)
Terme

Weather History for LICA - October, 2012

Change the Weather History Date:

Friday, October 19, 2012

  Actual Average Record
Temperature  
Mean Temperature 70 °F -  
Max Temperature 78 °F 66 °F 82 °F (2004)
Min Temperature 62 °F 51 °F 32 °F (1997)
Cooling Degree Days 5    
Growing Degree Days 20 (Base 50)    
Moisture  
Dew Point 58 °F    
Average Humidity 70    
Maximum Humidity 83    
Minimum Humidity 50    
Precipitation  
Precipitation 0.00 in - - ()
Sea Level Pressure  
Sea Level Pressure 30.12 in    
Wind  
Wind Speed 13 mph ()    
Max Wind Speed 20 mph    
Max Gust Speed -    
Averages and records for this station are not official NWS values.
T = Trace of Precipitation, MM = Missing Value Source: Averaged Metar Reports

Daily Weather History Graph

Daily Weather History Graph

Search for Another Location

Airport or City:

Trip Planner

Search our weather history database for the weather conditions in past years. The results will help you decide how hot, cold, wet, or windy it might be!

Date:

Astronomy

Oct. 19, 2012 Rise Set
Actual Time 7:08 AM CEST 6:10 PM CEST
Civil Twilight 6:41 AM CEST 6:37 PM CEST
Nautical Twilight 6:10 AM CEST 7:08 PM CEST
Astronomical Twilight 5:39 AM CEST 7:39 PM CEST
Moon 11:32 AM CEST (10/19) 9:31 PM CEST (10/19)
Length of Visible Light 11h 55m
Length of Day
11h 01m
Waxing Crescent, 21% of the Moon is Illuminated
Oct 19
Waxing Crescent
Oct 22
First Quarter
Oct 29
Full
Nov 7
Last Quarter
Nov 13
New

Hourly Weather History & Observations

Time (CEST) Temp. Dew Point Humidity Pressure Visibility Wind Dir Wind Speed Gust Speed Precip Events Conditions
12:50 AM 64.4 °F 59.0 °F 83% 30.12 in - NE 16.1 mph - N/A   Clear
1:50 AM 64.4 °F 59.0 °F 83% 30.12 in - NE 15.0 mph - N/A   Clear
2:50 AM 64.4 °F 57.2 °F 77% 30.12 in - NE 13.8 mph - N/A   Clear
3:50 AM 62.6 °F 55.4 °F 77% 30.12 in - NE 11.5 mph - N/A   Clear
4:50 AM 64.4 °F 55.4 °F 73% 30.12 in - NE 16.1 mph - N/A   Clear
5:50 AM 64.4 °F 53.6 °F 68% 30.12 in - NE 17.3 mph - N/A   Clear
6:50 AM 64.4 °F 53.6 °F 68% 30.12 in - NE 18.4 mph - N/A   Clear
7:50 AM 62.6 °F 51.8 °F 68% 30.12 in - NE 16.1 mph - N/A   Clear
8:50 AM 66.2 °F 55.4 °F 68% 30.15 in - NE 16.1 mph - N/A   Clear
9:50 AM 69.8 °F 59.0 °F 68% 30.15 in - ENE 19.6 mph - N/A   Clear
10:50 AM 71.6 °F 59.0 °F 64% 30.15 in - East 19.6 mph - N/A   Clear
11:50 AM 73.4 °F 60.8 °F 65% 30.15 in - East 16.1 mph - N/A   Clear
12:50 PM 75.2 °F 59.0 °F 57% 30.12 in - ENE 16.1 mph - N/A   Clear
2:50 PM 78.8 °F 59.0 °F 51% 30.09 in - East 13.8 mph - N/A   Clear
3:50 PM 77.0 °F 57.2 °F 50% 30.09 in - East 15.0 mph - N/A   Clear
4:50 PM 75.2 °F 57.2 °F 53% 30.09 in - ENE 15.0 mph - N/A   Clear
5:50 PM 71.6 °F 57.2 °F 60% 30.09 in - ENE 17.3 mph - N/A   Clear
6:50 PM 68.0 °F 59.0 °F 73% 30.09 in - NE 12.7 mph - N/A   Clear
7:50 PM 68.0 °F 60.8 °F 78% 30.12 in - NE 13.8 mph - N/A   Clear
8:50 PM 66.2 °F 59.0 °F 78% 30.12 in - NE 11.5 mph - N/A   Clear
9:50 PM 66.2 °F 59.0 °F 78% 30.12 in - ENE 11.5 mph - N/A   Clear
10:50 PM 64.4 °F 59.0 °F 83% 30.12 in - NE 10.4 mph - N/A   Clear
11:50 PM 62.6 °F 57.2 °F 82% 30.12 in - East 6.9 mph - N/A   Clear